Regional Weather Roundup
Issued by NWS

Home | Current Version | Previous Version | Graphics & Text | Print | Product List | Glossary On
Versions: 1 2 3 4 5 6 7 8 9 10 11 12 13 14 15 16 17 18 19 20 21 22 23 24 25 26 27 28 29 30 31 32 33 34 35 36 37 38 39 40 41 42 43 44 45 46 47 48 49 50
000
ASUS43 KLOT 190610
RWRIL

ILLINOIS REGIONAL WEATHER ROUNDUP
NATIONAL WEATHER SERVICE CHICAGO/ROMEOVILLE IL
100 AM CDT SAT APR 19 2014

NOTE: "FAIR" INDICATES FEW OR NO CLOUDS BELOW 12,000 FEET WITH NO
SIGNIFICANT WEATHER AND/OR OBSTRUCTIONS TO VISIBILITY.

* THESE STATIONS ARE NOT UNDER NWS QUALITY CONTROL. THEY ALSO MAY NOT
  REPORT WEATHER SUCH AS PRECIPITATION OR FOG.

ILZ001-002-007-009-015-016-024-190700-
NORTHWEST ILLINOIS

CITY           SKY/WX    TMP DP  RH WIND       PRES   REMARKS
MOLINE         FAIR      44  34  67 E16       30.32R
6HR MIN TEMP:  44; 6HR MAX TEMP:  60;

STERLING*      FAIR      37  28  70 E14       30.34S WCI  29
SAVANNA*       FAIR      39  31  73 E6        30.34S WCI  35
$$

ILZ003-004-008-010-011-017-018-190700-
NORTH CENTRAL ILLINOIS

CITY           SKY/WX    TMP DP  RH WIND       PRES   REMARKS
ROCKFORD       FAIR      37  27  67 E7        30.38R WCI  32
6HR MIN TEMP:  37; 6HR MAX TEMP:  57;

FREEPORT*      FAIR      37  32  81 E9        30.36S WCI  31
ROCHELLE*      FAIR      36  28  74 E12       30.35S WCI  28
DE KALB*       FAIR      34  26  71 E12       30.35F WCI  26
PERU*          FAIR      40  32  74 E5        30.35R
$$

ILZ005-006-012>014-019>023-190700-
NORTHEAST ILLINOIS

CITY           SKY/WX    TMP DP  RH WIND       PRES   REMARKS
CHICAGO-OHARE  FAIR      38  25  59 NE7       30.37S WCI  33
6HR MIN TEMP:  38; 6HR MAX TEMP:  42;

CHICAGO-MIDWAY FAIR      41  26  55 NE13      30.36F
6HR MIN TEMP:  39; 6HR MAX TEMP:  43;

AURORA         FAIR      38  26  62 NE12      30.35S WCI  30
6HR MIN TEMP:  37; 6HR MAX TEMP:  52;

LANSING*       FAIR      38  27  66 NE9       30.36S WCI  31
WAUKEGAN       FAIR      36  27  69 NE10      30.37S WCI  28
6HR MIN TEMP:  34; 6HR MAX TEMP:  36;

DUPAGE AIRPORT FAIR      36  26  67 NE8       30.35F WCI  30
6HR MIN TEMP:  36; 6HR MAX TEMP:  46;

KANKAKEE*      FAIR      35  28  76 E7        30.35S WCI  29
WHEELING       FAIR      38  28  67 NE6       30.39S WCI  33
6HR MIN TEMP:  37; 6HR MAX TEMP:  40;

MORRIS*        FAIR      37  27  68 E5        30.35R WCI  33
ROMEOVILLE*    FAIR      39  24  56 NE14      30.34S WCI  31
NORTHERLY ISL    N/A     39  31  73 NE10        N/A  WCI  32
$$

LMZ740>746-190700-
SOUTHERN LAKE MICHIGAN

STATION/POSITION SKY/WX   TEMP    WIND        PRES    VSBY  WAVE
                          AIR SEA DIR/SP/G                  HT/PER
                          (F)     (DEG/KT/KT) (MB)    (MI)  (FT/S)
WAUKEGAN HARBOR            38      40/ 12/ 14 1029.8R
HARRISON CRIB              38      40/ 12/ 15   N/A
BURNHAM HARBOR             39      30/ 10/ 14   N/A
CALUMET HARBOR             38      20/ 10/ 12 1028.9F
MICHIGAN CITY              38      20/ 10/ 11   N/A
$$

ILZ025>027-034>036-040-047-049-050-058-095>099-190700-
WEST-CENTRAL ILLINOIS

CITY           SKY/WX    TMP DP  RH WIND       PRES   REMARKS
QUINCY         FAIR      53  28  38 SE9       30.25S
GALESBURG*     FAIR      44  38  78 E12G17    30.30R
MACOMB*        FAIR      49  38  66 E12       30.31R
JACKSONVILLE*  FAIR      44  32  63 E8        30.29R
PITTSFIELD*    FAIR      51  31  46 CALM      30.27S
$$

ILZ028>032-037-038-041>044-048-051>054-059>061-190700-
CENTRAL ILLINOIS

CITY           SKY/WX    TMP DP  RH WIND       PRES   REMARKS
PONTIAC        FAIR      39  32  75 E12       30.35R WCI  32
BLOOMINGTON    FAIR      38  30  73 E14       30.33F WCI  30
DECATUR        FAIR      45  35  68 E10       30.29F
PEORIA         FAIR      44  33  65 E15       30.32R
6HR MIN TEMP:  44; 6HR MAX TEMP:  64;

LACON*         FAIR      39  32  76 E7        30.34S WCI  34
LINCOLN*       FAIR      45  37  72 NE12      30.31R
SPRINGFIELD    FAIR      50  36  58 E14       30.29R
6HR MIN TEMP:  50; 6HR MAX TEMP:  66;

TAYLORVILLE    FAIR      48  36  61 E15G22    30.27S
$$

ILZ033-039-045-046-055>057-062-063-190700-
EAST-CENTRAL ILLINOIS

CITY           SKY/WX    TMP DP  RH WIND       PRES   REMARKS
CHAMPAIGN      FAIR      44  34  67 NE16      30.30F
RANTOUL*       FAIR      43  32  65 NE13      30.32F
MATTOON        FAIR      46  35  65 NE9       30.27F
PARIS*         FAIR      47  35  63 NE9       30.30S
$$

ILZ079-100>102-190700-
SOUTHWEST ILLINOIS

CITY           SKY/WX    TMP DP  RH WIND       PRES   REMARKS
ALTON          FAIR      49  41  72 CALM      30.25F
BELLEVILLE     FAIR      46  43  90 NE2       30.24S
CAHOKIA*       FAIR      48  44  86 CALM      30.25R
SPARTA*        FAIR      52  43  71 CALM      30.26R
$$

ILZ064>066-069>071-074>076-080>082-084>086-088>090-092>094-190700-
SOUTH-CENTRAL ILLINOIS

CITY           SKY/WX    TMP DP  RH WIND       PRES   REMARKS
CARBONDALE     FAIR      50  45  83 CALM      30.24R
6HR MIN TEMP:  50; 6HR MAX TEMP:  67;

CAIRO*         FAIR      55  45  67 CALM      30.22S
MARION         FAIR      52  46  82 N3        30.24S
MT. VERNON     FAIR      45  36  70 N3        30.25S
CENTRALIA*       N/A     47  43  84 CALM      30.25S
SALEM*         FAIR      57  42  58 NE5       30.25S
METROPOLIS*    FAIR      53  42  65 CALM      30.21S
$$

ILZ067-068-072-073-078-083-087-091-190700-
SOUTHEAST ILLINOIS

CITY           SKY/WX    TMP DP  RH WIND       PRES   REMARKS
FAIRFIELD*     FAIR      55  45  67 N6        30.24S
HARRISBURG*    FAIR      53  43  67 N5        30.24S
ROBINSON*      FAIR      53  42  67 NE7       30.28S
CARMI*         FAIR      54  46  72 N3        30.23F
$$

ABBREVIATIONS USED IN REMARKS
   TC - TEMPERATURE IN CELSIUS
  WCI - WIND CHILL INDEX
   HX - HEAT INDEX
  VSB - VISIBILITY
$$




USA.gov is the U.S. government's official web portal to all federal, state and local government web resources and services.